Location: Carroll
(32.4774°N, 95.5202°W)
Time: 01:06:23
(UTC+02:00)

Daily predictions for brighter satellites

Satellite Brightness Start Highest point End
(mag) Time Altitude Azimuth Time Altitude Azimuth Time Altitude Azimuth
Cosmos 1697 Rocket 3.2 03:52:22 10° NNW 03:57:58 65° WSW 04:03:32 10° S
USA 229 DEB 4.1 03:53:25 10° S 03:59:49 42° ESE 04:06:16 10° NE
USA 229 4.1 03:53:32 10° S 03:59:56 42° ESE 04:06:22 10° NE
FENGYUN 3A 3.7 03:55:49 10° SSE 04:01:11 70° ENE 04:06:34 10° N
Cosmos 1408 Rocket 3.6 03:57:54 10° S 04:02:19 82° E 04:06:43 10° N
Cosmos 540 Rocket 3.7 03:58:25 10° N 04:03:29 54° ENE 04:08:30 10° SSE
Cosmos 332 Rocket 4.2 04:05:40 10° N 04:10:21 48° ENE 04:15:02 10° SE
YAOGAN 11 4.3 04:06:23 10° SSE 04:10:32 51° ENE 04:14:44 10° N
Meteor 2-1 Rocket 4.2 04:06:00 10° N 04:11:39 83° E 04:17:10 10° S
Cosmos 968 Rocket 3.4 04:11:23 10° S 04:16:29 67° ESE 04:21:39 10° NNE
CZ-2D R/B 4.0 04:16:02 10° S 04:19:49 54° W 04:23:38 10° NNW
GPS 2-04 Rocket1 3.0 04:15:27 10° WNW 04:19:51 80° NNE 04:23:58 11° ESE
Cosmos 2026 Rocket 4.1 04:13:58 10° S 04:20:02 83° W 04:26:13 10° N
H-2A R/B 3.0 04:16:18 10° S 04:20:09 70° W 04:23:59 10° NNW
Cosmos 1076 Rocket 4.2 04:16:06 10° SSW 04:20:16 57° W 04:24:30 10° N
Meteor 1-21 Rocket 4.3 04:20:17 10° S 04:25:39 53° E 04:31:01 10° NNE
Cosmos 2360 4.3 04:23:42 10° NNW 04:29:27 86° WSW 04:35:10 10° SSE
Cosmos 1378 4.4 04:28:18 10° SSW 04:31:52 43° W 04:35:28 10° N
CZ-4 DEB 3.5 04:30:14 10° S 04:33:22 52° W 04:36:31 10° NNW
Delta 128 4.1 04:30:09 10° W 04:34:33 42° S 04:37:30 18° SE
Envisat 3.6 04:30:38 14° SE 04:34:36 41° ENE 04:39:21 10° N
H-2A R/B 2.5 04:31:03 13° SSE 04:34:51 51° ENE 04:39:15 10° N
Cosmos 1328 Rocket 3.6 04:39:33 10° N 04:44:00 68° E 04:47:30 16° SSE
ERS-1 Rocket 3.0 04:39:05 10° SSE 04:44:06 88° WSW 04:49:10 10° NNW
S3M 3.9 04:40:14 10° N 04:46:21 79° E 04:52:16 11° S
Cosmos 371 Rocket 3.2 04:42:05 10° NNW 04:46:55 77° ENE 04:50:24 19° SSE
YAOGAN 6 4.3 04:46:03 17° E 04:46:59 19° ENE 04:49:33 10° NNE
SPOT 5 3.3 04:45:54 21° SE 04:48:28 40° ENE 04:52:49 10° N
Cosmos 2228 Rocket 3.2 04:44:38 10° N 04:49:07 77° W 04:53:23 11° S
ALOS 4.0 04:45:31 10° SSW 04:49:37 30° W 04:53:45 10° NW
SWIFT 4.5 04:48:10 10° SSW 04:49:44 12° S 04:50:22 11° S
Cosmos 1777 Rocket 3.9 04:45:09 10° SSW 04:50:25 84° ESE 04:55:42 10° NNE
Cosmos 1743 Rocket 4.3 04:48:03 10° SSW 04:52:27 56° W 04:56:51 10° N
Cosmos 1437 3.8 04:52:16 27° E 04:52:29 27° E 04:55:19 10° NE
ASTRO E2 4.4 04:50:19 10° WSW 04:53:20 20° SSW 04:54:44 17° S
USA 186 4.3 04:53:11 10° WSW 04:53:52 11° W 04:54:34 10° WNW
Cosmos 405 4.0 04:51:47 10° NNE 04:55:00 29° ENE 04:55:47 27° ESE
ARGOS 4.4 04:55:49 19° ESE 04:58:06 25° ENE 05:02:25 10° NNE
Cosmos 1500 Rocket 3.7 04:54:52 10° SSW 04:59:11 72° W 05:03:34 10° N
H-2A R/B 4.1 05:00:41 11° E 05:02:22 13° ENE 05:04:46 10° NE
CZ-2C R/B 2.3 05:05:00 19° W 05:05:00 19° W 05:06:19 10° NW
Cosmos 2219 3.5 05:01:49 17° S 05:05:54 44° ESE 05:11:20 10° NE
NOSS 3-1 (C) 3.7 05:03:43 15° S 05:07:58 39° ESE 05:13:38 10° NE
UNK 4.5 05:02:04 10° NNE 05:08:16 73° ESE 05:14:33 10° S
Cosmos 1441 Rocket 4.4 05:04:42 10° SSW 05:08:19 42° W 05:11:56 10° N
PSLV R/B 3.1 05:10:10 56° SE 05:10:36 66° ENE 05:13:40 10° N
SPOT 1/Viking Rocket 4.1 05:12:06 30° ESE 05:13:59 41° ENE 05:18:48 10° N
ATLAS CENTAUR R/B 2.6 05:10:58 10° NW 05:14:59 36° WSW 05:17:04 21° SSW
Delta 2 Rocket 3.0 05:13:06 10° W 05:16:36 71° NNW 05:17:57 33° ENE
Cosmos 2322 4.2 05:13:20 10° N 05:18:48 44° ENE 05:20:54 32° ESE
Cosmos 883 Rocket 4.4 05:14:23 10° N 05:20:36 73° E 05:23:50 30° SSE
Cosmos 1726 4.1 05:20:37 10° NE 05:22:28 17° ENE 05:22:28 17° ENE
Cosmos 1680 Rocket 4.0 05:18:20 10° N 05:23:22 45° ENE 05:24:52 36° ESE
Cosmos 2322 Rocket 2.8 05:19:21 10° NNW 05:24:45 50° WSW 05:28:10 22° S
USA 245 4.0 05:26:25 27° NNE 05:26:25 27° NNE 05:27:54 10° N
Cosmos 923 Rocket 4.0 05:21:30 10° N 05:26:41 67° ENE 05:28:22 42° SE
Cosmos 1939 Rocket 4.2 05:24:24 18° SSW 05:26:48 34° W 05:30:25 10° NNW
Cosmos 1908 3.6 05:27:48 10° NNW 05:31:39 62° W 05:32:47 41° SSW
Cosmos 304 Rocket 3.9 05:27:12 10° N 05:31:56 56° ENE 05:32:54 47° ESE
NOAA 11 4.5 05:31:17 39° ESE 05:32:51 51° ENE 05:38:06 10° N
Cosmos 1898 Rocket 4.0 05:33:17 38° ESE 05:33:18 38° E 05:38:05 10° NE
SL-16 R/B 3.0 05:28:43 10° NW 05:34:04 44° WSW 05:37:15 23° SSW
Meteor 1-11 4.3 05:33:41 39° SSE 05:35:37 59° E 05:41:16 10° NNE
Cosmos 2360 Rocket 2.2 05:30:08 10° NNW 05:35:46 65° ENE 05:37:27 44° SE
CZ-4B R/B 3.6 05:30:53 10° N 05:36:10 79° WNW 05:39:32 22° SSW
Cosmos 2315 Rocket 3.9 05:33:50 10° N 05:40:02 73° E 05:42:17 41° SSE
Cosmos 1633 Rocket 3.6 05:42:16 43° ENE 05:42:16 43° ENE 05:46:00 10° NNE
Sich 1 3.4 05:42:31 48° E 05:42:31 48° E 05:46:31 10° NNE
Cosmos 2151 4.1 05:46:46 23° SW 05:48:51 41° W 05:52:50 10° N
Cosmos 773 Rocket 4.4 05:44:02 10° NNW 05:49:06 55° WSW 05:50:49 38° SSW
Terra 2.8 05:51:23 32° ENE 05:51:23 32° ENE 05:55:31 10° N
Cosmos 1805 Rocket 3.8 05:54:12 52° SW 05:55:05 68° W 05:59:31 10° N
Cosmos 2227 Rocket 3.5 05:57:46 24° ENE 05:57:46 24° ENE 06:00:49 10° NE
GPS 2-04 Rocket1 4.3 05:55:48 10° W 05:58:34 28° WSW 05:58:34 28° WSW
Meteor 1-4 Rocket 4.4 05:56:36 10° NNE 05:58:33 23° NE 05:58:33 23° NE
Cosmos 1300 3.2 05:57:07 10° N 06:00:11 55° N 06:00:11 55° N
Cosmos 1151 Rocket 4.5 05:57:19 10° NNW 06:01:08 31° W 06:02:24 26° WSW
OAO 2 Rocket 4.0 06:00:47 10° WSW 06:04:31 44° SW 06:04:31 44° SW
Cosmos 2333 Rocket 3.9 06:02:14 10° NNE 06:06:24 20° ENE 06:07:11 20° ENE
CZ-4C R/B 4.3 06:07:42 38° N 06:07:42 38° N 06:09:56 10° N
USA 32 4.1 06:01:21 10° N 06:06:29 58° E 06:06:29 58° E
NOSS 3-1 (A) 3.3 06:07:22 34° SSW 06:10:06 85° WNW 06:16:25 10° NNE
Nadezhda 1 Rocket 4.5 06:06:33 10° N 06:12:16 42° E 06:12:27 42° E
Cosmos 1666 Rocket 4.2 06:16:58 50° W 06:17:08 50° W 06:21:26 10° N
Cosmos 1745 Rocket 3.8 06:17:11 66° SE 06:17:57 75° E 06:24:09 10° N
Cosmos 1707 Rocket 4.0 06:13:51 10° NNW 06:17:48 59° WNW 06:17:48 59° WNW
COSMOS 2428 2.6 06:12:38 10° NNW 06:18:19 71° ENE 06:18:35 70° E
SL-08 R/B 4.4 06:19:46 62° S 06:20:56 87° W 06:27:13 10° N
Cosmos 2297 Rocket 3.6 06:25:45 26° ENE 06:25:45 26° ENE 06:28:40 10° NE
Cosmos 1455 4.5 06:20:39 10° NNE 06:21:56 18° NNE 06:21:56 18° NNE
DELTA 2 R/B (1) 3.6 06:20:49 10° WNW 06:26:22 70° NNE 06:26:42 68° NE
ATLAS 2AS CENTAUR R/B 3.0 06:32:37 54° ESE 06:32:37 54° ESE 06:40:02 10° NE
Cosmos 1937 Rocket 3.6 06:36:51 68° WNW 06:36:51 68° WNW 06:42:01 10° N
ARGOS 4.3 06:37:20 32° WSW 06:38:06 34° W 06:42:59 10° NW
Cosmos 2219 Rocket 2.7 06:33:21 10° N 06:38:24 49° NE 06:38:24 49° NE
Cosmos 2237 4.3 06:34:17 10° NNW 06:39:52 69° W 06:39:52 69° W
H-2A R/B 2.3 06:41:19 65° W 06:41:19 65° W 06:46:28 10° NNW
Cosmos 1386 Rocket 4.3 06:49:17 83° WNW 06:49:17 83° WNW 06:55:16 10° N
Cosmos 1980 4.4 06:47:00 10° N 06:51:50 44° NE 06:51:50 44° NE
Cosmos 990 Rocket 4.4 06:53:27 58° NNW 06:53:27 58° NNW 06:57:44 10° N
ATLAS 3B R/B 4.2 06:54:48 10° N 07:00:17 24° NE 07:02:13 21° ENE
NOSS 0 Rocket 4.0 06:55:41 10° NNW 07:01:23 68° NE 07:01:23 68° NE
Cosmos 2082 3.9 07:03:38 67° NNW 07:03:38 67° NNW 07:08:49 10° NNE
Cosmos 2237 Rocket 2.8 07:00:19 10° N 07:05:04 51° NE 07:05:04 51° NE
FALCON 9 R/B 3.1 06:48:18 10° W 07:07:42 79° N 07:09:35 52° ENE
H-2A ROCKET BODY 4.4 05:53:45 10° WSW 07:17:36 78° S 07:23:23 36° ESE
Cosmos 2360 Rocket 4.5 07:16:44 10° WNW 07:19:05 13° W 07:19:14 13° W
Terra 4.0 07:30:16 18° WNW 07:30:16 18° WNW 07:32:33 10° NW
SeaSat 1 3.6 07:38:15 40° NNW 07:38:15 40° NNW 07:41:21 10° NNW
Cosmos 2227 Rocket 3.5 07:39:31 31° WNW 07:39:56 32° WNW 07:44:58 10° N
Cosmos 2333 Rocket 3.3 07:45:23 10° NNW 07:49:11 37° WNW 07:49:11 37° WNW
Lacrosse 4 Rocket 3.8 07:48:59 10° N 07:50:55 22° N 07:50:55 22° N
SL-16 R/B 3.0 07:51:26 10° NNW 07:55:32 47° N 07:55:32 47° N
Cosmos 2074 Rocket 4.4 08:06:47 60° NNW 08:06:47 60° NNW 08:11:57 10° N
Cosmos 2297 Rocket 3.8 08:07:31 27° WNW 08:07:37 27° WNW 08:12:23 10° N
CZ-3 Stage 3 3.9 07:18:21 10° W 08:08:29 81° S 08:09:53 65° ESE
Cosmos 2219 Rocket 4.5 08:18:45 10° WNW 08:20:07 14° WNW 08:20:07 14° WNW
ATLAS 2AS CENTAUR R/B 4.4 08:19:59 21° W 08:23:45 31° NW 08:30:42 10° NNE
CZ-2C R/B 3.9 08:20:34 10° NNE 08:23:38 36° NNE 08:23:38 36° NNE
COSMOS 2455 3.7 08:21:10 10° NNW 08:25:14 44° NW 08:25:14 44° NW
Cosmos 2154 Rocket 4.4 08:32:33 59° NNE 08:32:33 59° NNE 08:37:35 10° N
MOS 1-B Rocket 4.5 08:38:15 54° N 08:38:15 54° N 08:42:30 10° N
ATLAS 3B R/B 3.4 08:44:42 10° NW 08:49:26 43° WNW 08:49:26 43° WNW
USA 238 DEB 3.9 08:46:37 10° NNW 08:53:37 65° ENE 08:53:38 65° ENE
USA 238 3.9 08:46:43 10° NNW 08:53:42 64° ENE 08:53:45 64° ENE
Cosmos 2341 Rocket 4.3 09:01:00 62° NNW 09:01:00 62° NNW 09:06:21 10° N
SL-8 Rocket 4.2 09:24:55 69° NNW 09:24:55 69° NNW 09:30:29 10° N
Cosmos 2218 Rocket 4.1 09:28:45 72° NNE 09:28:45 72° NNE 09:34:23 10° N
Cosmos 2263 Rocket 2.6 09:33:39 59° NNE 09:33:39 59° NNE 09:38:14 10° NNE
Meteor 1-14 Rocket 4.5 09:42:48 69° NE 09:42:48 69° NE 09:48:11 10° NNE
NOSS 3-4 (A) 3.8 09:44:56 59° NW 09:44:56 59° NW 09:51:21 10° NNE
NOSS 3-4 (C) 3.8 09:45:03 59° NW 09:45:03 59° NW 09:51:26 10° NNE
Cosmos 2366 rocket 4.0 09:46:32 71° NW 09:46:32 71° NW 09:52:08 10° N
Cosmos 2056 Rocket 4.1 09:48:43 54° NE 09:48:43 54° NE 09:52:58 10° NNE
NOSS 3-2 (A) 4.2 09:44:49 10° NNW 09:52:28 71° ENE 09:56:22 34° SE
Meteor 2-19 Rocket 4.4 09:53:48 78° E 09:53:48 78° E 09:59:52 10° N
Cosmos 1943 3.8 10:01:16 10° NNW 10:05:21 45° NW 10:05:21 45° NW
AQUA 4.4 10:02:10 10° NNE 10:06:03 55° NE 10:06:03 55° NE
IRS-P3 4.2 10:03:29 10° N 10:08:19 70° NNW 10:08:19 70° NNW
CZ-4C R/B 2.8 10:02:12 10° NNW 10:09:35 80° WSW 10:11:13 59° S
Meteor 2-8 Rocket 4.3 10:05:20 10° N 10:11:26 83° W 10:11:28 83° WSW
Cosmos 1727 Rocket 3.9 10:05:19 10° N 10:11:24 72° W 10:11:24 72° W
Meteor 1-18 Rocket 4.4 10:10:38 10° N 10:16:16 68° E 10:16:57 62° ESE
Cosmos 909 Rocket 4.1 10:16:04 61° W 10:16:42 65° WNW 10:23:39 10° NNE
H-2A R/B 3.5 10:18:30 50° S 10:18:30 50° S 10:43:11 10° ESE
Cosmos 1300 Rocket 4.2 10:23:44 53° NE 10:23:44 53° NE 10:27:17 10° NNE
Cosmos 1867 3.6 10:17:47 10° NNW 10:23:16 75° ENE 10:23:55 66° ESE
Resurs 1-4 Rocket 3.6 10:20:17 10° NE 10:24:45 27° E 10:26:22 23° SE
BREEZE-M DEB (TANK) 3.5 10:21:53 10° NW 10:28:18 61° NNW 10:28:18 61° NNW
CBERS 1 LM4 rocket 4.3 10:29:42 10° N 10:34:28 81° NNW 10:34:28 81° NNW
Cosmos 1536 Rocket 4.5 10:30:31 10° NNW 10:33:30 40° NW 10:33:30 40° NW
NOSS 2-2 (E) 4.5 10:35:27 38° E 10:35:27 38° E 10:39:13 10° NE
Meteor 1-11 Rocket 4.5 10:35:07 36° SE 10:37:06 50° E 10:42:50 10° NNE
Cosmos 1934 Rocket 4.1 10:39:43 45° SSE 10:41:41 70° E 10:47:52 10° N
Meteor 1-20 Rocket 4.3 10:43:57 58° WSW 10:44:33 62° W 10:50:19 10° N
NPP 4.3 10:43:10 10° N 10:48:06 38° WNW 10:48:21 38° WNW
Okean 1 3.7 10:45:04 10° N 10:48:23 60° N 10:48:23 60° N
RESURS DK-1 4.5 10:50:29 17° NW 10:50:29 17° NW 10:52:46 10° NNW
SL-16 R/B 3.3 10:44:08 10° SE 10:50:02 50° ENE 10:56:00 10° N
Cosmos 1812 3.5 10:47:02 10° NNW 10:49:49 44° NNW 10:49:49 44° NNW
ADEOS 3.6 10:46:33 10° N 10:51:43 63° WNW 10:52:16 59° WSW
Okean 1-7 Rocket 3.6 10:47:47 10° N 10:52:22 79° E 10:52:54 67° SSE
Cosmos 1452 Rocket 3.4 10:53:20 63° WSW 10:53:56 70° WNW 10:59:11 10° NNE
Hubble Space Telescope 3.3 10:58:18 12° SE 10:58:18 12° SE 10:58:38 10° SE
Delta 2 Rocket 4.2 10:54:29 48° SSW 10:54:51 49° S 11:00:48 10° ESE
ERS-2 4.0 10:52:21 10° NNW 10:54:19 22° NW 10:54:19 22° NW
USA 234 3.2 10:50:41 13° SSE 10:56:31 62° SW 11:02:59 10° NW
Yuri Rocket 3.7 10:56:53 50° S 10:56:53 50° S 11:01:21 10° E
ARIANE 5 R/B 2.4 10:52:34 10° NNE 10:57:35 83° ESE 10:58:39 56° S
Cosmos 1000 Rocket 4.4 10:51:32 10° N 10:57:39 71° W 10:59:27 47° SSW
Okean 1 Rocket 3.5 11:00:25 48° WNW 11:00:25 48° WNW 11:04:26 10° N
Okean O Rocket 3.5 11:01:58 10° NE 11:05:28 23° E 11:08:10 14° SE
Cosmos 1420 Rocket 4.1 11:05:25 44° S 11:07:06 75° ESE 11:12:24 10° NNE
Cosmos 1605 Rocket 3.9 11:08:50 34° S 11:11:44 86° E 11:17:59 10° N
Cosmos 1821 Rocket 4.3 11:11:16 40° SW 11:13:09 52° W 11:19:24 10° N
ATLAS 2A CENTAUR R/B 3.7 11:09:15 31° WSW 11:13:12 60° S 11:53:49 10° ESE
CZ-2D R/B 2.1 11:07:58 10° NNE 11:13:27 84° ESE 11:15:48 36° S
Cosmos 1844 Rocket 2.9 11:13:11 41° WSW 11:14:45 55° WNW 11:20:20 10° N
GP-B 4.2 11:11:01 10° NNW 11:14:34 29° WNW 11:14:34 29° WNW
Cosmos 1844 3.7 11:14:16 43° SW 11:16:10 75° WNW 11:21:54 10° NNE
Cosmos 2263 Rocket 4.5 11:16:24 10° WNW 11:17:13 10° NW 11:18:02 10° NW
NOSS 3-2 (C) 4.4 11:11:12 10° NW 11:18:20 40° WSW 11:21:42 28° SSW
Cosmos 2123 Rocket 4.0 11:13:40 10° N 11:20:01 88° W 11:24:38 20° S
CENTAUR R/B 3.6 11:12:33 10° NNW 11:20:27 62° ENE 11:28:39 10° SE
OAO 2 Rocket 3.5 11:20:04 45° SW 11:20:49 48° SSW 11:25:42 10° SE
CZ-2D R/B 4.1 11:18:47 10° NNE 11:22:40 49° E 11:24:31 27° SSE
COSMOS 2406 3.3 11:20:40 10° NNW 11:26:16 54° WSW 11:29:18 26° S
OPS 6432 4.3 11:26:11 66° WSW 11:26:32 76° WNW 11:29:43 10° NNE
Cosmos 1455 Rocket 3.7 11:24:32 22° SSE 11:27:12 53° E 11:31:33 10° NNE
Cosmos 1461 3.1 11:26:05 40° SSW 11:27:45 83° ESE 11:32:27 10° NNE
Meteor 2-15 Rocket 4.4 11:21:58 10° N 11:28:10 86° E 11:33:53 12° S
Cosmos 1602 4.4 11:30:47 36° W 11:30:54 36° W 11:34:29 10° NNW
Cosmos 2278 Rocket 2.1 11:28:32 32° SSW 11:31:16 84° WNW 11:36:58 10° NNE
UNK 3.6 11:30:14 27° S 11:32:42 73° WSW 11:37:20 10° NNW
Tiangong 1 1.8 11:31:28 14° NW 11:33:53 52° NNE 11:36:53 10° ESE
UNK 4.2 11:32:04 22° WSW 11:37:29 50° NW 11:40:51 10° NNE
Cosmos 1140 Rocket 3.5 11:33:27 10° NNW 11:38:36 81° ENE 11:43:42 10° SSE
Cosmos 1025 Rocket 3.0 11:36:27 10° NNW 11:40:41 61° W 11:42:46 28° SSW
Cosmos 1536 3.3 11:39:54 36° WSW 11:40:48 42° W 11:44:41 10° N
Cosmos 1850 Rocket 4.4 11:36:45 10° N 11:41:57 64° ENE 11:47:10 10° SSE
Cosmos 1741 Rocket 4.5 11:37:18 10° N 11:42:32 62° ENE 11:47:42 10° SSE
NOSS 2-2 (D) 4.3 11:43:08 28° W 11:44:38 38° NW 11:48:53 10° NNE
Cosmos 407 Rocket 4.4 11:40:43 10° NW 11:45:03 28° W 11:45:56 26° WSW
ATLAS 5 CENTAUR R/B 4.2 11:41:44 10° N 11:47:12 34° NE 11:52:57 10° ESE
SL-27 R/B 4.1 11:45:29 10° NW 11:47:30 20° WNW 11:47:30 20° WNW
ASC 2 Rocket 4.2 11:48:26 23° S 11:49:06 24° S 11:52:24 10° ESE
Cosmos 2173 Rocket 4.3 11:44:06 10° S 11:50:05 66° E 11:56:09 10° NNE
BREEZE M DEB (TANK) 4.5 11:25:53 10° NW 11:50:15 88° NE 11:55:19 10° SE
APEX 4.1 11:48:51 18° SSE 11:50:16 29° ESE 11:52:54 10° NE
CZ-4B R/B 3.6 11:46:00 10° NNE 11:51:39 68° ESE 11:57:16 10° S
Cosmos 1544 Rocket 3.9 11:50:23 27° SW 11:52:27 49° W 11:56:44 10° N
Meteor 2-4 Rocket 3.5 11:47:54 10° NNW 11:53:17 75° W 11:58:35 10° S
OTV 4 0.2 11:53:58 21° WNW 11:55:48 87° SSW 11:58:43 10° ESE
